Location: Chippewa Lake
(41.0698°N, 81.9010°W)
Time: 15:06:46
(UTC+00:00)

Cosmos 2084 - Visible Passes

Search period start: 21 September 2021 00:00
Search period end: 01 October 2021 00:00
Orbit: 532 x 649 km, 62.8° (Epoch: 20 September)

Date Brightness Start Highest point End Pass type
(mag) Time Alt. Az. Time Alt. Az. Time Alt. Az.
21 Sep 6.0 10:42:57 10° SSE 10:45:59 21° ESE 10:49:05 10° ENE visible
24 Sep 6.2 09:29:36 10° SE 09:31:10 12° ESE 09:32:43 10° E visible
25 Sep 5.6 09:35:57 10° SSE 09:39:02 22° ESE 09:42:10 10° ENE visible
26 Sep 4.5 09:43:50 14° S 09:46:59 39° ESE 09:50:47 10° NE visible
27 Sep 3.4 09:52:39 23° SSW 09:55:01 75° ESE 09:59:05 10° NE visible
28 Sep 6.2 08:24:44 12° ESE 08:24:44 12° ESE 08:25:55 10° E visible
28 Sep 3.3 10:01:18 29° WSW 10:03:08 60° NW 10:07:11 10° NNE visible
29 Sep 5.7 08:33:16 20° E 08:33:16 20° E 08:35:16 10° ENE visible
29 Sep 4.1 10:09:50 25° W 10:11:21 34° NW 10:15:07 10° NNE visible
30 Sep 5.3 08:41:41 27° ENE 08:41:41 27° ENE 08:43:51 10° NE visible
30 Sep 4.8 10:18:15 18° WNW 10:19:39 22° NW 10:22:53 10° N visible
